Theta_e
320 321 324 329 327 328 326 322 317 314 313 312 312 313 310 310 311 313 313 311 317 322 324 324 324 325 326 325 324 326 327 325 323 323 323 323 324 324 325 326 327 328 328
322 324 323 321 319 320 318 314 313 310 307 307 307 309 308 309 308 309 308 303 310 312 316 319 321 322 323 324 324 322 321 320 319 318 317 317 318 318 319 320 322 323 325
323 321 319 317 315 315 314 310 310 304 301 302 303 307 307 306 305 301 298 297 299 306 310 316 318 319 316 316 316 316 316 316 314 313 313 313 313 314 314 315 316 318 320
318 317 314 311 309 307 306 307 305 301 297 297 299 303 303 303 300 294 294 295 296 297 304 312 311 309 309 311 311 312 312 310 310 309 309 309 310 311 311 312 312 313 315
312 310 307 305 303 300 300 302 302 300 295 295 300 302 300 299 296 292 292 294 295 295 296 303 301 300 301 305 307 308 308 308 307 306 306 307 307 308 309 309 310 311 311
303 303 302 301 300 298 297 298 300 298 295 293 301 302 300 299 295 291 291 293 293 293 293 292 290 290 295 298 302 304 306 306 305 305 305 305 306 306 307 307 308 308 309
299 299 299 299 298 295 294 294 296 294 294 295 296 303 298 297 293 289 288 289 290 292 291 288 287 286 285 292 296 300 302 303 303 303 303 303 304 304 305 306 306 307 307
297 297 296 296 296 294 293 293 295 297 295 294 293 297 293 293 292 288 286 288 287 290 289 287 285 284 283 284 287 294 297 299 300 300 300 301 302 302 303 304 305 305 305
295 295 295 295 294 294 292 292 292 293 291 292 291 290 284 283 286 291 286 284 286 287 287 285 284 282 282 282 284 287 292 294 296 297 297 298 299 300 301 302 302 303 303
293 294 295 294 293 293 291 290 290 290 289 285 287 290 286 284 281 280 287 284 284 285 285 283 282 281 280 281 283 286 288 290 291 293 294 295 296 297 298 299 300 301 301
293 293 293 293 291 291 289 288 287 286 286 285 284 284 285 284 284 282 279 281 281 283 286 283 282 280 280 280 280 283 286 287 289 290 290 292 293 295 296 297 298 298 299
291 291 291 290 289 287 286 285 285 284 284 284 283 283 282 281 280 278 279 278 278 281 284 282 281 280 279 279 281 283 284 285 287 288 289 289 290 292 293 295 296 296 296
288 288 288 287 286 286 286 285 284 283 283 282 282 282 282 280 280 279 279 278 278 280 281 281 279 278 279 278 279 282 281 283 286 286 287 287 289 290 291 292 293 293 294
286 286 285 285 285 284 284 284 283 283 282 281 280 280 280 279 280 280 279 276 274 276 276 276 278 278 278 278 279 281 277 281 284 285 286 286 287 288 289 290 290 291 291
286 284 284 283 284 284 283 282 281 280 280 280 280 279 279 279 279 278 278 277 275 272 273 275 275 277 277 277 278 277 276 279 282 283 283 284 285 286 287 287 288 289 289
284 284 283 282 282 281 281 281 280 280 279 279 279 278 278 278 277 277 278 277 276 274 271 275 275 275 276 277 277 276 276 278 279 280 281 282 284 284 285 285 285 286 287
283 282 281 280 280 280 280 279 279 278 278 278 278 277 277 277 275 275 276 276 275 274 272 274 275 275 274 274 275 275 275 275 275 278 279 281 282 282 282 283 283 284 284
281 281 280 279 278 278 278 278 277 277 277 277 277 276 275 277 275 275 275 275 274 275 274 272 274 274 273 274 273 273 274 276 274 276 279 280 280 280 281 280 281 281 282
279 279 279 278 278 278 277 277 277 276 276 276 275 275 274 275 275 275 274 274 274 276 275 273 272 274 273 273 272 273 273 273 274 276 277 277 278 278 278 278 279 279 279
278 278 278 278 278 278 277 278 277 275 275 276 276 275 274 275 274 274 275 274 275 275 275 273 272 272 272 272 272 270 270 271 270 272 274 274 275 275 275 276 276 276 276
278 278 278 278 278 278 279 276 277 276 275 275 276 275 276 276 277 277 276 275 275 275 273 272 271 270 270 269 269 271 269 269 269 270 269 269 268 269 269 272 272 274 277
277 277 277 277 277 279 281 281 277 275 275 275 275 274 275 275 275 277 278 279 279 275 273 271 270 268 269 270 271 269 267 265 263 269 266 264 267 266 267 268 273 275 275
276 275 275 275 276 276 280 280 279 276 275 275 275 274 275 275 274 274 276 278 278 277 276 272 269 269 270 270 269 267 265 265 264 265 264 261 265 264 266 268 271 273 274
274 274 274 274 274 275 280 279 279 276 275 275 274 274 274 273 274 275 276 276 274 272 272 272 272 272 271 270 268 267 266 263 262 263 264 258 262 262 264 264 270 271 273
273 273 274 273 273 274 278 279 278 276 275 274 275 274 274 273 275 278 276 273 270 270 273 274 273 272 271 270 269 265 260 259 257 259 262 261 261 260 261 261 265 269 270
274 274 275 273 273 273 277 278 278 276 274 274 273 274 275 275 277 278 275 269 266 268 267 265 264 264 265 265 267 264 262 257 257 255 261 258 259 259 256 260 262 262 263
Wind_Speed
1 1 1 3 4 3 3 3 4 4 5 5 5 5 6 6 6 4 6 21 22 23 22 21 20 20 21 20 19 22 25 27 27 27 27 27 26 26 26 26 26 25 22
2 3 4 4 4 4 3 3 4 4 4 5 6 6 6 6 8 9 6 8 23 24 22 22 21 20 22 25 26 26 24 24 24 24 24 24 25 26 26 27 27 27 27
5 4 4 4 4 4 4 4 5 4 4 5 5 5 5 8 9 10 8 8 9 20 23 21 22 25 25 23 23 22 22 24 25 24 24 24 24 24 24 24 26 26 26
6 6 5 4 5 4 4 5 4 4 4 5 4 4 5 7 9 10 9 8 8 8 15 24 26 26 25 25 24 23 22 23 23 24 24 25 25 25 25 25 24 25 25
7 6 5 5 5 4 4 3 5 4 4 4 4 4 5 7 8 8 11 11 11 9 7 19 23 23 24 25 25 24 23 23 23 24 24 24 24 24 25 24 25 25 25
8 6 6 6 5 5 6 4 5 5 3 4 3 5 6 6 7 8 9 9 9 9 9 11 8 11 23 24 24 25 24 24 24 25 24 24 24 24 24 24 24 24 24
8 8 6 7 7 7 6 5 2 5 7 8 2 4 5 7 8 7 4 7 8 8 10 9 7 7 8 21 23 25 25 25 25 25 24 24 24 25 25 25 24 24 24
9 9 7 7 7 5 7 8 6 2 3 7 3 1 2 1 4 5 5 6 6 6 8 9 9 10 9 7 16 24 26 26 26 26 26 25 26 25 25 25 25 25 25
9 8 8 7 7 5 5 6 6 5 2 5 10 3 2 1 3 1 4 5 5 5 4 6 8 9 9 7 10 15 24 25 25 25 25 25 25 25 26 26 26 26 26
9 10 9 8 8 5 6 6 7 7 4 4 2 6 6 3 2 4 2 5 5 6 5 5 6 8 10 8 14 21 25 26 25 25 25 24 25 25 25 26 26 26 26
9 9 8 7 7 6 6 8 7 7 6 4 4 2 3 4 4 3 3 5 3 3 3 4 4 5 9 8 8 14 22 23 22 23 22 23 24 24 26 26 25 26 27
4 6 7 7 8 7 6 5 6 8 6 7 5 6 5 3 3 3 2 3 4 3 1 4 4 4 6 7 12 20 21 23 22 23 23 24 24 24 25 26 25 26 26
4 6 7 7 6 6 6 6 8 8 7 5 6 5 5 5 2 2 2 2 2 3 3 2 3 3 7 6 8 20 20 24 25 25 25 26 25 26 26 26 26 26 27
6 6 6 6 6 6 6 6 5 6 6 6 8 6 4 4 3 3 2 2 3 2 3 3 3 5 9 9 15 23 13 24 26 26 27 28 26 28 27 26 26 26 30
7 6 6 6 6 7 7 6 5 6 6 5 5 5 4 3 4 3 3 2 1 3 3 3 4 5 8 9 12 10 12 21 25 26 28 27 26 29 26 26 27 30 31
7 7 7 6 7 6 6 5 5 5 5 4 4 5 4 3 3 3 2 2 1 2 4 2 4 7 8 8 10 10 11 20 21 23 27 26 28 29 27 26 30 30 30
7 7 6 6 6 6 5 5 5 5 6 5 4 4 4 3 3 3 2 2 2 2 5 7 6 8 7 8 8 7 9 9 8 23 25 26 28 24 26 28 30 30 29
6 6 6 6 6 6 5 5 5 4 5 5 4 4 3 2 3 3 2 3 3 4 5 10 10 8 9 8 8 9 8 8 9 17 25 28 24 25 24 30 30 29 29
6 6 6 6 6 5 5 5 4 4 4 4 4 3 3 3 2 2 3 3 3 5 5 7 10 8 7 7 9 8 9 10 9 20 23 23 22 23 30 30 29 29 28
6 6 5 5 5 5 4 4 4 4 3 2 3 3 3 3 3 4 4 4 6 6 6 7 9 9 9 9 9 11 10 10 12 11 17 17 21 28 28 27 28 27 27
5 5 5 5 5 4 3 4 3 2 2 2 2 2 2 3 7 9 5 6 7 5 7 8 9 10 11 11 13 9 13 13 11 11 10 12 12 11 12 19 21 26 30
5 4 4 4 4 2 5 4 3 2 2 1 2 2 3 2 7 11 12 14 12 9 9 9 8 11 13 12 9 12 13 13 12 2 16 14 11 11 11 10 26 31 35
3 3 3 3 3 1 1 1 1 0 2 2 2 3 4 5 4 6 11 14 7 12 13 11 11 11 12 13 15 15 13 12 13 13 13 15 10 11 10 11 30 32 32
4 3 2 2 1 2 3 3 4 2 3 2 2 2 2 5 6 9 9 6 5 6 9 9 10 11 14 15 13 12 14 14 11 8 10 14 6 14 13 12 31 28 28
2 2 2 2 3 3 5 5 4 2 3 2 4 3 3 6 11 16 8 6 7 8 11 14 18 23 22 21 18 10 9 11 14 12 10 8 11 16 16 14 11 27 32
2 2 3 3 3 3 5 6 5 3 3 3 3 3 7 10 15 16 8 7 10 10 8 9 9 10 12 11 17 9 8 10 11 10 3 10 15 13 12 9 12 14 13
Wind_Direction
195 9 345 50 38 44 37 36 36 27 19 11 20 25 13 18 34 57 60 46 45 50 48 44 38 36 33 29 22 26 33 34 30 24 21 18 14 11 12 7 6 4 356
114 88 71 59 45 32 40 40 60 31 18 9 18 17 28 38 46 45 44 39 48 47 47 45 46 41 40 39 35 31 29 29 26 23 16 14 11 9 5 5 4 2 2
81 84 69 51 37 26 33 30 52 41 28 12 28 30 44 50 56 50 40 39 36 41 46 46 54 51 43 35 30 26 24 24 19 14 10 10 7 6 2 4 360 356 358
62 68 72 48 37 31 29 50 32 28 26 12 16 41 62 63 61 53 48 43 41 41 42 52 53 51 42 38 32 28 26 24 19 15 11 7 4 3 2 2 1 359 355
62 73 63 45 46 52 45 34 41 33 17 16 24 51 54 67 59 51 50 46 45 44 50 58 56 48 39 33 29 25 25 21 18 15 10 8 6 3 1 360 358 358 357
58 65 61 52 41 39 30 18 51 36 9 6 31 82 69 70 69 54 50 47 48 48 53 53 42 34 34 31 27 24 21 19 16 13 9 7 4 3 1 0 357 356 352
61 66 65 63 48 42 33 28 16 48 26 360 104 106 87 73 72 57 58 50 46 49 63 53 48 35 21 28 22 21 18 15 13 11 8 5 4 2 359 357 356 354 352
51 64 60 54 58 51 38 22 29 49 53 24 13 191 121 176 65 64 51 56 45 49 59 57 52 40 28 20 19 16 15 11 9 7 4 4 2 360 358 354 356 353 351
64 65 68 67 49 50 54 37 19 31 73 51 37 35 42 352 331 39 62 52 50 50 64 60 54 44 34 18 18 10 10 9 6 4 1 1 359 357 355 354 353 350 349
57 56 52 52 67 48 46 50 36 35 49 45 12 45 59 71 62 334 1 38 21 38 58 51 45 41 26 15 13 4 5 2 1 360 358 357 357 353 352 352 349 347 347
48 54 65 60 64 63 60 62 54 48 43 60 43 358 44 53 44 53 318 334 355 9 62 65 53 38 27 13 1 357 359 356 354 354 354 354 352 350 348 347 346 346 343
87 60 66 69 65 60 63 63 62 57 57 58 56 51 53 50 16 21 347 325 322 301 64 71 57 41 24 5 357 354 352 351 349 351 351 350 349 349 346 343 344 341 341
81 66 67 67 73 73 66 69 68 61 53 62 57 58 53 50 26 32 28 316 312 317 311 134 77 40 15 354 350 351 347 347 345 348 347 347 345 345 342 340 340 338 338
87 81 81 78 74 78 75 70 74 82 73 72 69 61 63 46 35 33 45 354 314 286 311 316 339 14 358 346 341 346 339 343 341 343 342 343 340 341 338 337 334 335 333
106 96 83 83 72 74 74 75 77 81 77 70 73 73 70 52 35 17 44 33 327 320 303 336 335 358 337 331 329 335 328 327 335 334 335 335 333 335 334 335 332 332 326
102 95 89 87 84 78 75 78 79 71 82 78 66 63 58 63 42 17 15 11 349 304 280 304 310 307 315 308 315 328 315 323 319 325 327 326 329 328 328 329 329 323 322
103 97 98 93 86 87 81 83 80 74 81 82 77 64 58 66 38 20 6 353 321 286 277 302 299 306 302 301 310 311 306 299 309 318 320 322 324 317 321 324 322 318 317
95 110 103 95 88 83 78 78 81 82 85 77 62 60 35 31 27 8 338 329 308 286 284 303 307 313 315 307 310 303 301 314 315 310 315 317 314 319 317 316 315 315 313
110 104 105 99 94 91 89 85 85 81 84 86 66 55 22 14 4 334 312 308 298 303 282 303 308 307 306 315 317 311 315 314 311 312 308 312 314 311 312 312 312 313 315
117 110 101 103 100 98 93 87 82 77 82 92 63 34 18 347 341 329 332 309 313 309 320 316 312 313 319 326 316 323 321 321 316 310 309 309 315 307 306 310 311 313 310
112 115 121 112 116 113 114 86 85 100 88 70 36 3 357 330 348 335 325 322 315 336 327 326 318 318 323 332 330 329 318 317 317 305 314 311 305 301 300 308 305 309 311
116 132 136 145 131 129 102 104 93 40 3 354 322 344 324 4 354 336 323 320 321 340 334 326 322 317 320 318 328 324 318 322 319 275 321 308 305 300 305 302 308 315 311
128 146 148 136 157 148 164 51 129 348 321 299 309 341 346 352 320 306 301 305 325 325 334 331 316 317 316 332 324 321 318 310 309 315 308 301 306 295 301 303 308 307 305
170 154 162 176 167 245 253 264 291 206 281 281 299 322 350 322 315 308 303 316 338 338 331 328 321 332 325 326 328 320 326 312 301 304 315 291 336 303 315 306 303 304 312
159 173 163 201 219 250 269 272 291 293 303 307 325 349 335 303 308 316 328 353 335 328 327 341 332 328 329 332 327 335 326 328 319 321 309 301 320 314 309 305 301 309 313
167 168 201 202 221 258 281 283 300 301 299 329 321 298 302 318 317 320 350 7 338 321 358 343 330 329 328 322 334 335 325 315 314 314 344 318 313 326 310 304 307 305 304